sat.trackr.live / text

‹ back to catalog

HORS 3 (RS81S)

NORAD 61753 · 2024-199U

PAYLOAD ACTIVE UNKNOWN

§ Identity

Operator
Country
CIS
Launch date
2024-11-04
Launch site
VOSTO
Launch vehicle
Mass (kg)
RCS (m²)

Purposes: comms

External: N2YO · Heavens-Above · Gunter

§ Orbital elements

Epoch: 2026-05-25T04:01:23.069568Z

Period
92.71 min
Inclination
97.3014°
Eccentricity
0.0006863
Mean motion
15.53196967 rev/d
Perigee alt
402.7 km
Apogee alt
412.1 km
Semi-major
6,785.5 km
B*
5.3305e-4
RAAN
20.5757°
Arg perigee
28.0288°
Mean anomaly
332.1333°
Rev number
13,398

§ Raw data

HORS 3 (RS81S)1 61753U 24199U   26145.16762812  .00033497  00000+0  53305-3 0  99922 61753  97.3014  20.5757 0006863  28.0288 332.1333 15.53196967133989

JSON: /api/v1/satellites/61753 · /tle

For live sub-satellite position, see the globe view (requires WebGL).

§ Visibility from observer

Set your observer location to see the next 7 days of passes ≥ 10°. The values pass through the URL so the page stays shareable.

No JS? Fill the form by hand. The geolocation button needs JavaScript.

§ Radio — SatNOGS DB

ModeDescriptionDownlinkUplink
FSK Mode U - FSK38k4 435.650 MHz
FSK Mode U - Telemetry 435.200 MHz

2 transmitters · refreshed weekly from db.satnogs.org